Погода в Салмановке

Россия / Ульяновская область     54°28′13″N   48°16′07″E
темп.,
°C
ветер,
м/с
пор.,
м/с
влажн.,
%
обл.,
%
осадки,
мм/ч
давл.,
гПа
погр.,
м
23 сентября, чт
чт2301:00+9юв698698 0.0 1019442
04:00+9юв51091100 0.4 1019435
07:00+10вюв61184100 0.0 1019430
10:00+10юв61181100 0.3 1020443
13:00+11вюв61078100 0.2 1019470
16:00+11вюв81377100 0.3 1019574
19:00+9юв81289100 0.6 1019558
22:00+9юв71191100 3.8 1018688
24 сентября, пт
пт2401:00+9юв61394100 3.9 1017699
04:00+9юв61293100 5.4 1016676
07:00+10юв61189100 0.4 1014655
10:00+11юв71277100 0.5 1013579
13:00+11ююв81273100 0.6 1013706
16:00+9ююв81491100 5.8 1013782
19:00+9ююв71487100 5.3 1013952
22:00+10юв51075100 5.8 1012436
25 сентября, сб
сб2501:00+9юв5890100 0.1 1011450
04:00+8вюв3592100 1.3 1010296
07:00+9вюв3583100 0.7 1009223
10:00+10вюв3485100 0.8 1009435
13:00+10ююв1179100 0.0 1009409
16:00+11св1180100 0.0 1010338
19:00+10всв1186100 0.0 101156
22:00+8ссв11905 0.0 101152
26 сентября, вс
вс2601:00+8зсз119287 0.0 101127
04:00+7ссз2294100 0.0 101135
07:00+7ссз1194100 0.0 101037
10:00+10ссв1184100 0.0 1010242
13:00+12св2272100 0.0 1009638
16:00+13ссв3467100 0.0 1009872
19:00+10ссв3578100 0.0 1010160
22:00+9ссв3684100 0.0 1010176
27 сентября, пн
пн2701:00+7с479262 0.0 1010254
04:00+6ссз4898100 0.0 1011246
07:00+8ссв6987100 0.0 1011574
10:00+9всв7976100 0.0 1013843
13:00+8всв7986100 0.8 10151046
16:00+7св8990100 1.5 1018905
19:00+7всв8107998 0.2 1021916
22:00+7св6971100 0.2 1022590